Regional Weather Roundup
Issued by NWS

Home | Current Version | Previous Version | Text Only | Print | Product List | Glossary Off
Versions: 1 2 3 4 5 6 7 8 9 10 11 12 13 14 15 16 17 18 19 20 21 22 23 24 25 26 27 28 29 30 31 32 33 34 35 36 37 38 39 40 41 42 43 44 45 46 47 48 49 50

419
ASUS43 KLMK 270510
RWRKY
KENTUCKY REGIONAL WEATHER ROUNDUP
NATIONAL WEATHER SERVICE LOUISVILLE KY
100 AM EDT WED JUL 27 2016

NOTE "FAIR" INDICATES FEW OR NO CLOUDS BELOW 12,000 FEET
WITH NO SIGNIFICANT WEATHER AND/OR OBSTRUCTIONS TO VISIBILITY.

KYZ001>023-026-027-061>063-070>075-270600-
WESTERN AND SOUTH CENTRAL KENTUCKY

CITY           SKY/WX    TMP DP  RH WIND       PRES   REMARKS
PADUCAH        PTCLDY    75  72  90 CALM      29.98F
HENDERSON      CLEAR     75  72  88 W3        29.98S
OWENSBORO      CLEAR     78  78 100 CALM      29.99S
HOPKINSVILLE   CLOUDY    79  74  86 CALM      29.99S
BOWLING GREEN  CLOUDY    83  76  79 CALM      29.99S HX  91
GLASGOW        PTCLDY    78  78 100 CALM      29.99F
$$

KYZ024-025-028>034-038-045-046-053-270600-
NORTH CENTRAL KENTUCKY

CITY           SKY/WX    TMP DP  RH WIND       PRES   REMARKS
LOUISVILLE/SDF MOCLDY    80  73  79 E6        29.99F
LOUISVILLE/LOU PTCLDY    79  71  76 E3        30.00F
FORT KNOX      PTCLDY    76  73  90 CALM      29.99F
$$

KYZ035>037-039>044-047>052-055>060-089>105-270600-
NORTHEAST KENTUCKY

CITY           SKY/WX    TMP DP  RH WIND       PRES   REMARKS
LEXINGTON      CLEAR     76  71  85 CALM      30.03S
COVINGTON      MOCLDY    76  74  93 W3        30.02S
FRANKFORT      CLEAR     75  72  90 CALM      30.01S
$$

KYZ054-064>069-076>088-106>120-270600-
SOUTHEAST KENTUCKY

CITY           SKY/WX    TMP DP  RH WIND       PRES   REMARKS
JACKSON        CLEAR     75  71  87 CALM      30.05S
LONDON         PTCLDY    77  72  84 CALM      30.03F
SOMERSET       CLEAR     73  73 100 CALM      30.03F
MIDDLESBORO    CLEAR     74  72  93 CALM      30.05F
MONTICELLO     CLEAR    N/A N/A N/A W3        30.03F
$$





USA.gov is the U.S. government's official web portal to all federal, state and local government web resources and services.